When you browse on this site, cookies collect data to enhance your experience and personalize the content and advertising you see.
Visit our Privacy Policy to learn more. By continuing to use the site, you agree to this use of cookies and data.
  • In United Kingdom
  • List of Countries
  • For 7 days
  • Water Temperature
  • Satellite Maps
  • Weather Map
  • Weather Widgets
  • user-avatar
    Login

    Hourly Weather Horodnje

    Today, 24 April, Wednesday

    Time Temperature Precipitation Wind Pressure Humidity
    00:00 +7°C° 0 mm 2 mps 771 mmHg 56%
    01:00 +7°C° 0 mm 2 mps 771 mmHg 57%
    02:00 +7°C° 0 mm 2 mps 770 mmHg 59%
    03:00 +7°C° 0 mm 2 mps 771 mmHg 59%
    04:00 +7°C° 0 mm 2 mps 771 mmHg 60%
    05:00 +7°C° 0 mm 2 mps 771 mmHg 60%
    06:00 +9°C° 0 mm 3 mps 771 mmHg 56%
    07:00 +11°C° 0 mm 3 mps 771 mmHg 52%
    08:00 +13°C° 0 mm 3 mps 771 mmHg 46%
    09:00 +16°C° 0 mm 3 mps 771 mmHg 44%
    10:00 +17°C° 0 mm 4 mps 771 mmHg 43%
    11:00 +18°C° 0 mm 4 mps 771 mmHg 41%
    12:00 +19°C° 0 mm 4 mps 771 mmHg 41%
    13:00 +19°C° 0 mm 3 mps 771 mmHg 40%
    14:00 +20°C° 0 mm 3 mps 771 mmHg 40%
    15:00 +19°C° 0 mm 4 mps 771 mmHg 43%
    16:00 +19°C° 0 mm 4 mps 770 mmHg 47%
    17:00 +18°C° 0 mm 4 mps 770 mmHg 50%
    18:00 +15°C° 0 mm 4 mps 770 mmHg 56%
    19:00 +13°C° 0 mm 3 mps 770 mmHg 62%
    20:00 +11°C° 0 mm 3 mps 770 mmHg 68%
    21:00 +12°C° 0 mm 2 mps 770 mmHg 70%
    22:00 +10°C° 0 mm 2 mps 771 mmHg 73%
    23:00 +10°C° 0 mm 2 mps 771 mmHg 75%

    Tomorrow, 25 April, Thursday

    Time Temperature Precipitation Wind Pressure Humidity
    00:00 +10°C° 0 mm 1 mps 771 mmHg 76%
    01:00 +10°C° 0 mm 1 mps 771 mmHg 77%
    02:00 +10°C° 0 mm 1 mps 771 mmHg 78%
    03:00 +9°C° 0 mm 1 mps 771 mmHg 79%
    04:00 +9°C° 0 mm 1 mps 771 mmHg 79%
    05:00 +9°C° 0 mm 1 mps 771 mmHg 80%
    06:00 +11°C° 0 mm 1 mps 771 mmHg 72%
    07:00 +13°C° 0 mm 2 mps 771 mmHg 65%
    08:00 +15°C° 0 mm 2 mps 771 mmHg 57%
    09:00 +17°C° 0 mm 2 mps 771 mmHg 51%
    10:00 +19°C° 0 mm 3 mps 771 mmHg 44%
    11:00 +20°C° 0 mm 3 mps 771 mmHg 37%
    12:00 +21°C° 0 mm 3 mps 770 mmHg 36%
    13:00 +22°C° 0 mm 3 mps 770 mmHg 35%
    14:00 +23°C° 0 mm 2 mps 770 mmHg 34%
    15:00 +21°C° 0 mm 2 mps 769 mmHg 38%
    16:00 +20°C° 0 mm 3 mps 769 mmHg 42%
    17:00 +20°C° 0 mm 3 mps 769 mmHg 46%
    18:00 +17°C° 0 mm 3 mps 769 mmHg 53%
    19:00 +14°C° 0 mm 3 mps 769 mmHg 60%
    20:00 +12°C° 0 mm 3 mps 769 mmHg 67%
    21:00 +11°C° 0 mm 3 mps 769 mmHg 65%
    22:00 +12°C° 0 mm 2 mps 769 mmHg 64%
    23:00 +10°C° 0 mm 2 mps 769 mmHg 63%

    Day after tomorrow, 26 April, Friday

    Time Temperature Precipitation Wind Pressure Humidity
    00:00 +10°C° 0 mm 2 mps 768 mmHg 64%
    01:00 +10°C° 0 mm 2 mps 768 mmHg 64%
    02:00 +10°C° 0 mm 2 mps 768 mmHg 64%
    03:00 +9°C° 0 mm 2 mps 768 mmHg 66%
    04:00 +10°C° 0 mm 1 mps 768 mmHg 67%
    05:00 +10°C° 0 mm 1 mps 768 mmHg 69%
    06:00 +12°C° 0 mm 1 mps 768 mmHg 64%
    07:00 +14°C° 0 mm 2 mps 768 mmHg 60%
    08:00 +16°C° 0 mm 2 mps 768 mmHg 55%
    09:00 +17°C° 0 mm 2 mps 767 mmHg 51%
    10:00 +19°C° 0 mm 2 mps 767 mmHg 47%
    11:00 +20°C° 0 mm 2 mps 767 mmHg 42%
    12:00 +21°C° 0 mm 2 mps 767 mmHg 40%
    13:00 +23°C° 0 mm 2 mps 766 mmHg 38%
    14:00 +23°C° 0 mm 2 mps 766 mmHg 36%
    15:00 +22°C° 0 mm 3 mps 766 mmHg 39%
    16:00 +21°C° 0 mm 3 mps 765 mmHg 41%
    17:00 +21°C° 0 mm 3 mps 765 mmHg 43%
    18:00 +19°C° 0 mm 3 mps 765 mmHg 49%
    19:00 +17°C° 0 mm 3 mps 765 mmHg 54%
    20:00 +14°C° 0 mm 3 mps 765 mmHg 60%
    21:00 +13°C° 0 mm 3 mps 765 mmHg 64%
    22:00 +13°C° 0 mm 2 mps 765 mmHg 67%
    23:00 +13°C° 0 mm 2 mps 765 mmHg 71%

    27 April, Saturday

    Time Temperature Precipitation Wind Pressure Humidity
    00:00 +12°C° 0 mm 2 mps 765 mmHg 72%
    01:00 +12°C° 0 mm 1 mps 764 mmHg 74%
    02:00 +12°C° 0 mm 1 mps 764 mmHg 75%
    03:00 +12°C° 0 mm 1 mps 764 mmHg 76%
    04:00 +12°C° 0 mm 1 mps 764 mmHg 76%
    05:00 +12°C° 0 mm 1 mps 764 mmHg 77%
    06:00 +14°C° 0 mm 2 mps 764 mmHg 71%
    07:00 +16°C° 0 mm 2 mps 763 mmHg 65%
    08:00 +18°C° 0 mm 2 mps 763 mmHg 58%
    09:00 +19°C° 0 mm 3 mps 763 mmHg 54%
    10:00 +20°C° 0 mm 3 mps 763 mmHg 50%
    11:00 +22°C° 0 mm 3 mps 763 mmHg 46%
    12:00 +22°C° 0 mm 3 mps 762 mmHg 45%
    13:00 +22°C° 0 mm 4 mps 762 mmHg 44%
    14:00 +23°C° 0 mm 4 mps 762 mmHg 43%
    15:00 +22°C° 0 mm 3 mps 761 mmHg 46%
    16:00 +21°C° 0 mm 3 mps 761 mmHg 49%
    17:00 +21°C° 0 mm 3 mps 760 mmHg 52%
    18:00 +18°C° 0 mm 3 mps 760 mmHg 59%
    19:00 +16°C° 0 mm 3 mps 760 mmHg 66%
    20:00 +14°C° 0 mm 2 mps 760 mmHg 72%
    21:00 +14°C° 0 mm 2 mps 760 mmHg 76%
    22:00 +13°C° 0 mm 2 mps 760 mmHg 79%
    23:00 +13°C° 0 mm 2 mps 760 mmHg 83%

    28 April, Sunday

    Time Temperature Precipitation Wind Pressure Humidity
    00:00 +13°C° 0 mm 2 mps 760 mmHg 84%
    01:00 +13°C° 0 mm 1 mps 759 mmHg 85%
    02:00 +12°C° 0 mm 1 mps 759 mmHg 87%
    03:00 +12°C° 0 mm 1 mps 759 mmHg 87%
    04:00 +12°C° 0 mm 1 mps 759 mmHg 87%
    05:00 +12°C° 0 mm 1 mps 758 mmHg 87%
    06:00 +14°C° 0 mm 1 mps 759 mmHg 80%
    07:00 +16°C° 0 mm 1 mps 759 mmHg 73%
    08:00 +19°C° 0 mm 1 mps 759 mmHg 65%
    09:00 +20°C° 0 mm 1 mps 759 mmHg 60%
    10:00 +22°C° 0 mm 1 mps 759 mmHg 54%
    11:00 +23°C° 0 mm 1 mps 759 mmHg 48%
    12:00 +23°C° 0 mm 1 mps 758 mmHg 47%
    13:00 +24°C° 0 mm 2 mps 758 mmHg 46%
    14:00 +24°C° 0 mm 2 mps 758 mmHg 45%
    15:00 +22°C° 0 mm 3 mps 758 mmHg 49%
    16:00 +21°C° 0 mm 3 mps 757 mmHg 54%
    17:00 +20°C° 0 mm 4 mps 757 mmHg 59%
    18:00 +18°C° 0 mm 3 mps 758 mmHg 62%
    19:00 +16°C° 0 mm 3 mps 758 mmHg 65%
    20:00 +14°C° 0 mm 2 mps 758 mmHg 69%
    21:00 +14°C° 0 mm 2 mps 758 mmHg 68%
    22:00 +13°C° 0 mm 2 mps 758 mmHg 67%
    23:00 +13°C° 0 mm 2 mps 758 mmHg 66%

    29 April, Monday

    Time Temperature Precipitation Wind Pressure Humidity
    00:00 +13°C° 0 mm 2 mps 758 mmHg 66%
    01:00 +12°C° 0 mm 2 mps 758 mmHg 66%
    02:00 +12°C° 0 mm 2 mps 758 mmHg 66%
    03:00 +12°C° 0 mm 1 mps 758 mmHg 68%
    04:00 +12°C° 0 mm 1 mps 758 mmHg 69%
    05:00 +11°C° 0 mm 1 mps 758 mmHg 71%
    06:00 +13°C° 0 mm 1 mps 758 mmHg 66%
    07:00 +15°C° 0 mm 1 mps 758 mmHg 61%
    08:00 +18°C° 0 mm 1 mps 759 mmHg 56%
    09:00 +19°C° 0 mm 1 mps 759 mmHg 53%
    10:00 +21°C° 0 mm 1 mps 758 mmHg 50%
    11:00 +21°C° 0 mm 2 mps 758 mmHg 47%
    12:00 +23°C° 0 mm 2 mps 758 mmHg 45%
    13:00 +23°C° 0 mm 2 mps 758 mmHg 43%
    14:00 +24°C° 0 mm 3 mps 758 mmHg 42%
    15:00 +22°C° 0 mm 3 mps 758 mmHg 44%
    16:00 +21°C° 0 mm 3 mps 758 mmHg 46%
    17:00 +21°C° 0 mm 3 mps 757 mmHg 49%
    18:00 +19°C° 0 mm 2 mps 758 mmHg 53%
    19:00 +17°C° 0 mm 2 mps 758 mmHg 57%
    20:00 +15°C° 0 mm 1 mps 758 mmHg 62%
    21:00 +15°C° 0 mm 1 mps 758 mmHg 64%
    22:00 +14°C° 0 mm 1 mps 758 mmHg 66%
    23:00 +13°C° 0 mm 0 mps 758 mmHg 67%
    Show more